Regional Weather Roundup
Issued by NWS

Home | Current Version | Previous Version | Graphics & Text | Print | Product List | Glossary On
Versions: 1 2 3 4 5 6 7 8 9 10 11 12 13 14 15 16 17 18 19 20 21 22 23 24 25 26 27 28 29 30 31 32 33 34 35 36 37 38 39 40 41 42 43 44 45 46 47 48 49 50
000
ASUS43 KMPX 240210
RWRMN
WEATHER ROUNDUP FOR MINNESOTA
NATIONAL WEATHER SERVICE TWIN CITIES/CHANHASSEN MN
900 PM CDT MON APR 23 2018


NOTE: "FAIR" INDICATES FEW OR NO CLOUDS BELOW 12,000 FEET WITH NO
SIGNIFICANT WEATHER AND/OR OBSTRUCTIONS TO VISIBILITY. N/A MEANS
CURRENT SKY AND/OR WEATHER CONDITIONS ARE NOT AVAILABLE.

MNZ060>063-068>070-240300-
   Twin Cities Metro

CITY           SKY/WX    TMP DP  RH WIND       PRES   REMARKS
TWIN CITIES    FAIR      64  39  39 W6        30.12S
ST PAUL        FAIR      60  37  42 CALM      30.12S
CRYSTAL        FAIR      58  37  45 CALM      30.11S
LAKEVILLE      FAIR      48  39  71 W3        30.13R
EDEN PRAIRIE   FAIR      61  39  44 W3        30.11S
SOUTH ST PAUL  FAIR      61  34  36 CALM      30.12R
LAKE ELMO      FAIR      54  37  54 CALM      30.13R
$$
MNZ001>005-007-008-013>017-022>024-027-028-240300-
   Northwest Minnesota

CITY           SKY/WX    TMP DP  RH WIND       PRES   REMARKS
BEMIDJI        FAIR      48  30  49 NW6       30.15R
HALLOCK        MOCLDY    54  36  50 NW10      30.19R
ROSEAU         FAIR      52  41  66 NE5       30.16R
WARROAD        FAIR      52  34  50 CALM      30.16R
THIEF RVR FALL FAIR      52  36  54 W6        30.18R
CROOKSTON      FAIR      54  43  66 CALM      30.19R
FOSSTON        FAIR      48  36  61 NW6       30.18R
DETROIT LAKES  FAIR      52  36  54 N5        30.17R
MOORHEAD       FAIR      54  39  58 N10       30.17R
PARK RAPIDS    FAIR      50  33  52 NW8       30.13R
MAHNOMEN       FAIR      51  37  57 N9        30.17R
$$
MNZ006-009>011-018-025>026-240300-
   North Central Minnesota

CITY           SKY/WX    TMP DP  RH WIND       PRES   REMARKS
BAUDETTE       FAIR      46  28  49 NW8       30.14R
FLAG ISLAND    FAIR      48  28  46 W5        30.14S
INTL FALLS     FAIR      52  29  41 N7        30.13R
WASKISH        FAIR      41  30  65 CALM      30.15R
BIG FORK       FAIR      54  27  35 CALM      30.13
LONGVILLE      FAIR      50  34  53 CALM      30.13R
GRAND RAPIDS   FAIR      54  31  41 CALM      30.14R
CRANE LAKE     FAIR      37  27  65 CALM      30.14R
ORR            FAIR      46  27  46 CALM      30.11R
COOK           FAIR      54  30  40 CALM      30.13R
WALKER         FAIR      56  31  38 NW6       30.14R
$$
MNZ012-019>021-037-240300-
   Northeast Minnesota

CITY           SKY/WX    TMP DP  RH WIND       PRES   REMARKS
DULUTH         FAIR      57  36  45 SW7       30.10R
ELY            FAIR      52  27  37 CALM      30.11R
HIBBING        FAIR      46  28  49 NW3       30.11R
EVELETH        FAIR      47  29  50 CALM      30.12R
DULUTH HARBOR  FAIR      57  37  47 SW6       30.10R
TWO HARBORS    FAIR      57  39  51 CALM      30.08S
SILVER BAY     FAIR      46  36  66 CALM      30.08R
GRAND MARAIS     N/A     40  33  76 CALM      30.09S
G MARAIS ARPRT FAIR      43  28  56 CALM      30.12R
$$
MNZ029>031-032-039>041-046>048-054>057-064-240300-
   West Central Minnesota

CITY           SKY/WX    TMP DP  RH WIND       PRES   REMARKS
FERGUS FALLS   FAIR      57  39  51 N7        30.11R
WHEATON        CLOUDY    57  48  72 E3        30.14R
MORRIS         MOCLDY    59  45  58 CALM      30.12R
ALEXANDRIA     CLOUDY    61  38  42 CALM      30.13S
ELBOW LAKE     CLOUDY    55  42  63 CALM      30.13S
WADENA         FAIR      55  41  58 NW6       30.13R
GLENWOOD       FAIR      57  37  47 CALM      30.14R
APPLETON       CLEAR     59  43  55 CALM      30.13R
BENSON         CLEAR     55  37  50 CALM      30.14S HAZE
ORTONVILLE     CLOUDY    57  43  58 SE3       30.13R
MADISON        PTCLDY    59  48  67 S5        30.13R
WILLMAR        FAIR      55  45  67 CALM      30.16R
$$
MNZ033>034-036-042>043-049>051-058-059-240300-
   Central Minnesota

CITY           SKY/WX    TMP DP  RH WIND       PRES   REMARKS
ST CLOUD       FAIR      53  39  59 CALM      30.12R
SAUK CENTRE    FAIR      55  37  50 CALM      30.13R
PAYNESVILLE    FAIR      54  43  67 CALM      30.13R
AITKIN         MOCLDY    54  36  50 CALM      30.10S
PINE RIVER     FAIR      52  34  50 N3        30.16R
BRAINERD       MOCLDY    54  35  48 CALM      30.12R
STAPLES        FAIR      54  37  54 CALM      30.13R
LONG PRAIRIE   FAIR      52  37  58 CALM      30.13S
LITTLE FALLS   FAIR      52  30  43 CALM      30.13R
LITCHFIELD     FAIR      57  43  58 CALM      30.14R
BUFFALO        FAIR      56  42  60 CALM      30.13S
MAPLE LAKE     FAIR      53  40  62 CALM      30.14R
HUTCHINSON     FAIR      54  49  85 CALM      30.14S
$$
MNZ037-044-045-052-053-240300-
   East Central Minnesota

CITY           SKY/WX    TMP DP  RH WIND       PRES   REMARKS
PRINCETON      FAIR      52  37  58 CALM      30.13R
MORA           FAIR      50  39  66 CALM      30.14S
CAMBRIDGE      FAIR      54  37  54 CALM      30.13S
RUSH CITY      FAIR      52  41  67 CALM      30.12S
MOOSE LAKE     FAIR      54  36  50 CALM      30.09S
HINCKLEY       FAIR      52  36  54 CALM      30.12R
CLOQUET        FAIR      59  34  38 SW5       30.11R
MCGREGOR       FAIR      55  37  50 CALM      30.12R
$$
MNZ071>073-080-081-089-090-097-098-240300-
   Southwest Minnesota

CITY           SKY/WX    TMP DP  RH WIND       PRES   REMARKS
MONTEVIDEO     CLEAR     57  39  51 CALM      30.13R
GRANITE FALLS  CLEAR     58  46  65 CALM      30.15R
CANBY          CLEAR     56  43  61 SW3       30.14R
MARSHALL       CLEAR     57  43  59 S5        30.14R
REDWOOD FALLS  CLEAR     59  44  57 S3        30.13R
OLIVIA         CLEAR     59  41  51 CALM      30.13R
PIPESTONE      CLEAR    N/A N/A N/A SE6       30.14R
WINDOM         CLEAR     54  34  47 SE5       30.14S
WORTHINGTON    CLEAR     54  42  64 SE7       30.15R
JACKSON        CLEAR     54  41  62 CALM      30.15S
TRACY          CLEAR     54  44  67 S3        30.14R
SLAYTON        CLEAR     55  43  65 SE5       30.15R
$$
MNZ065>067-074>077-082>085-091>093-240300-
   South Central Minnesota

CITY           SKY/WX    TMP DP  RH WIND       PRES   REMARKS
MANKATO        FAIR      59  42  53 CALM      30.14R
NEW ULM        CLEAR     57  39  51 CALM      30.13S
ST JAMES       CLEAR     55  46  71 CALM      30.15R
FAIRMONT       CLEAR     54  44  69 NW3       30.14S
GLENCOE        FAIR      57  46  66 CALM      30.13R
OWATONNA       FAIR      55  45  67 CALM      30.13S
WASECA         FAIR      52  45  76 NW6       30.14S
ALBERT LEA     FAIR      55  41  58 CALM      30.13R
$$
MNZ078>079-086>088-094>096-240300-
   Southeast Minnesota

CITY           SKY/WX    TMP DP  RH WIND       PRES   REMARKS
ROCHESTER      FAIR      59  34  39 N3        30.13R
RED WING       FAIR      52  34  50 CALM      30.11S
STANTON        FAIR      55  43  62 CALM      30.11S
DODGE CENTER   FAIR      57  39  51 NE3       30.13S
WINONA         FAIR      54  34  47 CALM      30.09S
AUSTIN         FAIR      57  39  51 CALM      30.12S
PRESTON        FAIR      57  30  35 N5        30.13R
$$
ABBREVIATIONS USED IN REMARKS
   TC - TEMPERATURES IN CELSIUS
  WCI - WIND CHILL INDEX
   HX - HEAT INDEX
  VSB - VISIBILITY
$$




USA.gov is the U.S. government's official web portal to all federal, state and local government web resources and services.